TimeCST,TemperatureF,Dew PointF,Humidity,Sea Level PressureIn,VisibilityMPH,Wind Direction,Wind SpeedMPH,Gust SpeedMPH,PrecipitationIn,Events,Conditions,WindDirDegrees,DateUTC
12:53 AM,14.0,6.1,71,30.11,10.0,WSW,17.3,-,N/A,,Clear,240,2013-01-04 06:53:00
1:53 AM,14.0,7.0,74,30.10,10.0,WSW,12.7,-,N/A,,Clear,240,2013-01-04 07:53:00
2:53 AM,12.9,7.0,77,30.09,10.0,WSW,16.1,-,N/A,,Clear,250,2013-01-04 08:53:00
3:53 AM,12.9,8.1,81,30.06,10.0,WSW,13.8,-,N/A,,Clear,240,2013-01-04 09:53:00
4:53 AM,14.0,9.0,80,30.04,10.0,WSW,15.0,-,N/A,,Clear,250,2013-01-04 10:53:00
6:53 AM,18.0,10.9,74,30.04,10.0,West,17.3,-,N/A,,Clear,260,2013-01-04 12:53:00
7:53 AM,16.0,10.9,81,30.04,10.0,West,16.1,-,N/A,,Clear,260,2013-01-04 13:53:00
8:53 AM,19.0,12.0,74,30.04,10.0,West,20.7,26.5,N/A,,Clear,260,2013-01-04 14:53:00
9:53 AM,21.0,12.9,71,30.05,10.0,West,17.3,27.6,N/A,,Clear,260,2013-01-04 15:53:00
10:53 AM,23.0,14.0,68,30.05,10.0,West,19.6,25.3,N/A,,Clear,260,2013-01-04 16:53:00
11:53 AM,24.1,15.1,69,30.04,10.0,West,21.9,28.8,N/A,,Clear,270,2013-01-04 17:53:00
12:53 PM,24.1,15.1,69,30.03,10.0,West,19.6,25.3,N/A,,Clear,270,2013-01-04 18:53:00
1:53 PM,26.1,16.0,66,30.04,10.0,West,15.0,24.2,N/A,,Clear,280,2013-01-04 19:53:00
2:53 PM,26.1,16.0,66,30.06,10.0,West,12.7,-,N/A,,Clear,270,2013-01-04 20:53:00
3:53 PM,26.1,16.0,66,30.08,10.0,West,17.3,-,N/A,,Clear,270,2013-01-04 21:53:00
4:53 PM,25.0,16.0,69,30.10,10.0,West,16.1,-,N/A,,Clear,270,2013-01-04 22:53:00
5:53 PM,24.1,16.0,71,30.13,10.0,West,18.4,-,N/A,,Clear,260,2013-01-04 23:53:00
6:53 PM,25.0,16.0,69,30.15,10.0,West,16.1,-,N/A,,Clear,270,2013-01-05 00:53:00
7:53 PM,24.1,15.1,69,30.16,10.0,West,11.5,-,N/A,,Clear,260,2013-01-05 01:53:00
8:53 PM,25.0,15.1,66,30.16,10.0,West,13.8,-,N/A,,Clear,270,2013-01-05 02:53:00
9:53 PM,25.0,15.1,66,30.16,10.0,WNW,11.5,-,N/A,,Clear,290,2013-01-05 03:53:00
10:53 PM,24.1,15.1,69,30.18,10.0,West,8.1,-,N/A,,Clear,280,2013-01-05 04:53:00
11:53 PM,21.9,14.0,72,30.18,10.0,West,9.2,-,N/A,,Clear,280,2013-01-05 05:53:00